Arctic Village, AK

10:39 PM AKDT on August 24, 2016 (GMT -0800)
Arctic Village

Weather History for PARC - January, 2013

Change the Weather History Date:

Monday, January 21, 2013

  Actual Average Record
Temperature  
Mean Temperature -2 °F -  
Max Temperature 8 °F -18 °F 24 °F (1991)
Min Temperature -13 °F -36 °F -67 °F (1993)
Degree Days  
Heating Degree Days 68    
Moisture  
Dew Point -12 °F    
Average Humidity 70    
Maximum Humidity 100    
Minimum Humidity 4    
Precipitation  
Precipitation 0.00 in - - ()
Sea Level Pressure  
Sea Level Pressure 30.29 in    
Wind  
Wind Speed 8 mph (NE)    
Max Wind Speed 12 mph    
Max Gust Speed 17 mph    
Visibility 9 miles    
Events      
Averages and records for this station are not official NWS values.
T = Trace of Precipitation, MM = Missing Value Source: NWS Daily Summary

Daily Weather History Graph

Daily Weather History Graph

Search for Another Location

Airport or City:

Trip Planner

Search our weather history database for the weather conditions in past years. The results will help you decide how hot, cold, wet, or windy it might be!

Date:

Astronomy

Jan. 21, 2013 Rise Set
Actual Time 10:47 AM AKST 3:01 PM AKST
Civil Twilight 9:19 AM AKST 4:28 PM AKST
Nautical Twilight 8:03 AM AKST 5:44 PM AKST
Astronomical Twilight 6:56 AM AKST 6:51 PM AKST
Moon 10:24 AM AKST (1/21) 6:43 AM AKST (1/21)
Length of Visible Light 7h 08m
Length of Day
4h 14m
Waxing Gibbous, 76% of the Moon is Illuminated
Jan 21
Waxing Gibbous
Jan 26
Full
Feb 3
Last Quarter
Feb 9
New
Feb 17
First Quarter

Hourly Weather History & Observations

Time (AKST) Temp. Windchill Dew Point Humidity Pressure Visibility Wind Dir Wind Speed Gust Speed Precip Events Conditions
8:56 AM 8.6 °F -3.7 °F 6.8 °F 92% 30.24 in 7.0 mi NNE 8.1 mph - N/A   Overcast
9:16 AM 8.6 °F -6.3 °F 5.0 °F 85% 30.24 in 7.0 mi NNE 11.5 mph 17.3 mph N/A   Overcast
9:36 AM 8.6 °F -6.3 °F 3.2 °F 79% 30.25 in 6.0 mi NE 11.5 mph - N/A   Overcast
9:56 AM 8.6 °F -4.7 °F 1.4 °F 73% 30.25 in 10.0 mi NE 9.2 mph - N/A   Overcast
10:16 AM 8.6 °F -4.7 °F 3.2 °F 79% 30.25 in 9.0 mi NNE 9.2 mph - N/A   Overcast
10:36 AM 8.6 °F -5.5 °F 3.2 °F 79% 30.25 in 10.0 mi NE 10.4 mph - N/A   Overcast
11:16 AM 6.8 °F -4.8 °F 3.2 °F 85% 30.27 in 4.0 mi NE 6.9 mph - N/A   Overcast
11:36 AM 6.8 °F -4.8 °F 3.2 °F 85% 30.27 in 5.0 mi ENE 6.9 mph - N/A   Overcast
11:56 AM 6.8 °F -3.5 °F 3.2 °F 85% 30.28 in 5.0 mi ENE 5.8 mph - N/A   Overcast
12:16 PM 6.8 °F -5.9 °F 3.2 °F 85% 30.28 in 3.0 mi ENE 8.1 mph - N/A   Overcast
12:36 PM 6.8 °F -3.5 °F -0.4 °F 72% 30.28 in 8.0 mi NNE 5.8 mph - N/A   Overcast
12:56 PM 3.2 °F -10.3 °F -2.2 °F 78% 30.29 in 10.0 mi NNE 8.1 mph - N/A   Mostly Cloudy
1:16 PM 3.2 °F -11.3 °F 3.2 °F 100% 30.29 in 10.0 mi NNE 9.2 mph - N/A   Scattered Clouds
1:36 PM 3.2 °F -10.3 °F -0.4 °F 85% 30.29 in 10.0 mi NNE 8.1 mph - N/A   Mostly Cloudy
1:56 PM 3.2 °F -10.3 °F -7.6 °F 61% 30.29 in 10.0 mi North 8.1 mph - N/A   Overcast
2:16 PM 3.2 °F -10.3 °F -0.4 °F 85% 30.30 in 10.0 mi North 8.1 mph - N/A   Mostly Cloudy
2:36 PM 1.4 °F -13.5 °F 1.4 °F 100% 30.30 in 10.0 mi NNE 9.2 mph - N/A   Scattered Clouds
2:56 PM 1.4 °F -12.5 °F -9.4 °F 61% 30.30 in 10.0 mi NE 8.1 mph - N/A   Scattered Clouds
3:16 PM -0.4 °F -13.4 °F -9.4 °F 66% 30.30 in 10.0 mi ENE 6.9 mph - N/A   Partly Cloudy
3:36 PM -0.4 °F -10.4 °F -0.4 °F 100% 30.30 in 10.0 mi ENE 4.6 mph - N/A   Partly Cloudy
3:56 PM -2.2 °F -15.6 °F -9.4 °F 71% 30.30 in 10.0 mi East 6.9 mph - N/A   Partly Cloudy
4:16 PM -0.4 °F -16.7 °F -14.8 °F 51% 30.29 in 10.0 mi NE 10.4 mph - N/A   Clear
4:36 PM -0.4 °F -15.7 °F -0.4 °F 100% 30.29 in 10.0 mi ENE 9.2 mph - N/A   Clear
4:56 PM -0.4 °F -15.7 °F -7.6 °F 72% 30.29 in 10.0 mi NE 9.2 mph - N/A   Clear
5:16 PM -4.0 °F -20.2 °F -20.2 °F 46% 30.29 in 10.0 mi NE 9.2 mph - N/A   Clear
5:36 PM -5.8 °F -19.9 °F - N/A% 30.29 in 10.0 mi NE 6.9 mph - N/A   Clear
5:56 PM -7.6 °F - -16.6 °F 65% 30.30 in 10.0 mi Calm Calm - N/A   Clear
6:16 PM -7.6 °F - -16.6 °F 65% 30.30 in 10.0 mi Calm Calm - N/A   Clear
6:36 PM -7.6 °F -22.1 °F -7.6 °F 100% 30.30 in 10.0 mi East 6.9 mph - N/A   Clear
6:56 PM -7.6 °F -18.8 °F -29.2 °F 34% 30.30 in 10.0 mi East 4.6 mph - N/A   Clear
7:16 PM -7.6 °F - - N/A% 30.30 in 10.0 mi Calm Calm - N/A   Clear
7:36 PM -9.4 °F -20.9 °F -27.4 °F 41% 30.29 in 10.0 mi East 4.6 mph - N/A   Clear
7:56 PM -9.4 °F -24.3 °F - N/A% 30.30 in 10.0 mi ENE 6.9 mph - N/A   Clear
8:16 PM -9.4 °F -27.9 °F -27.4 °F 41% 30.30 in 10.0 mi NE 10.4 mph - N/A   Clear
8:36 PM -9.4 °F -25.6 °F -9.4 °F 100% 30.30 in 10.0 mi ENE 8.1 mph - N/A   Clear
8:56 PM -9.4 °F -24.3 °F -20.2 °F 59% 30.30 in 10.0 mi ENE 6.9 mph - N/A   Clear
9:16 PM -9.4 °F -22.7 °F -16.6 °F 71% 30.30 in 10.0 mi East 5.8 mph - N/A   Clear
9:36 PM -9.4 °F -18.6 °F -29.2 °F 37% 30.30 in 10.0 mi ESE 3.5 mph - N/A   Clear
9:56 PM -11.2 °F -20.6 °F -14.8 °F 84% 30.30 in 10.0 mi East 3.5 mph - N/A   Clear
10:16 PM -11.2 °F -23.0 °F -23.8 °F 54% 30.30 in 10.0 mi East 4.6 mph - N/A   Clear
10:36 PM -11.2 °F -23.0 °F -22.0 °F 59% 30.29 in 10.0 mi ESE 4.6 mph - N/A   Clear
10:56 PM -13.0 °F - -25.6 °F 53% 30.29 in 10.0 mi Calm Calm - N/A   Clear
11:16 PM -11.2 °F -20.6 °F -25.6 °F 49% 30.29 in 10.0 mi East 3.5 mph - N/A   Clear
11:36 PM -11.2 °F -27.8 °F -27.4 °F 45% 30.29 in 10.0 mi ENE 8.1 mph - N/A   Clear
11:56 PM -11.2 °F -27.8 °F -117.4 °F 4% 30.29 in 10.0 mi ENE 8.1 mph - N/A   Clear